Location: Arbon
(43.0005°N, 0.7472°E)
Time: 20:24:22
(UTC+00:00)

Tiangong - Pass Details

Date: 03 October 2021
Orbit: 382 x 385 km, 41.5° (Epoch: 18 October)

Event Time Altitude Azimuth Distance (km) Brightness Sun altitude
Exits shadow 04:59:46 19° 263° (W) 991 2.5 -11.2°
Maximum altitude 05:01:49 55° 190° (S) 461 1.3 -10.8°
Drops below altitude 10° 05:04:54 10° 111° (ESE) 1,394 5.0 -10.3°
Sets 05:06:59 0° 107° (ESE) 2,245 6.4 -9.9°
